Location: Lafig�re
(44.4503°N, 4.0357°E)
Time: 15:40:46
(UTC+00:00)

Vanguard 2 Rocket - Pass Details

Date: 01 February 2021
Orbit: 554 x 3325 km, 32.9° (Epoch: 06 March)

Event Time Altitude Azimuth Distance (km) Brightness Sun altitude
Rises 09:41:30 0° 200° (SSW) 7,095 11.9 21.2°
Reaches altitude 10° 09:47:42 10° 188° (S) 6,236 12.0 21.8°
Maximum altitude 10:01:45 24° 144° (SE) 5,012 13.7 23.1°
Drops below altitude 10° 10:14:08 10° 99° (E) 5,521 11.5 24.2°
Sets 10:19:01 0° 87° (E) 6,157 11.4 24.6°
